星链-37226(STARLINK-37226)

导读

STARLINK-37226(NORAD编号68619)是SpaceX星链(Starlink)低轨互联网星座中的一颗通信卫星,属于星链项目批量发射的组网卫星之一,纳入全球卫星监视系统NORAD编号管理。 作为星链星座组成单元,该卫星运行于300-550公里近地轨道,采用Ku/Ka频段提供宽带互联网服务,填补偏远地区、海洋、航空等场景网络覆盖空白。星链计划累计已发射超1.1万颗卫星,截至2026年超9600颗在轨正常工作,STARLINK-37226与其他卫星共同支撑起全球覆盖、低时延的天基通信网络,为星链商业化服务提供基础设施支撑。

Basic Information
目录编号:
68619
目录名称:
STARLINK-37226
国际标识:
2026-073T
轨道中心:
EARTH
卫星名称:
星链-37226
卫星全名:
星链-37226(STARLINK-37226)
卫星状态:
在轨 (已飞行69 天)
发射日期:
2026-04-05 UTC
国别 :
美国 (US)
星等 :
--
Orbit Information
数据来源 国际轨道数据 AOE轨道数据
星历时间 2026-06-13T03:33:01+0800
6小时前
查看轨道信息
2026-06-13T08:00:00+0800
1小时前
查看轨道信息
半长轴 6843.661km 6843.71km
偏心率 0.0000911 0.0001475
轨道倾角 97.286° 97.286°
近地点辐角 95.683° 83.550°
升交点赤经 3.241° 3.425°
平近点角 264.451° 219.394°
近地点 464.9km 464.563km
远地点 466.148km 466.583km
周期 93.906分钟 93.907分钟
每日圈数 15.334516 15.334353
Detailed Information
固有亮度:
5
最大亮度:
2.5
卫星平台:
Starlink V1.0
覆盖范围:
全球
运营商:
太空探索技术公司
运营商所在国:
美国
制造商(研发单位):
太空探索技术公司
制造商所在国:
美国
使用方式:
暂无
Satellite Introduction
Starlink 计划是 SpaceX 推出的全球卫星互联网项目,通过发射低轨道卫星,为全球尤其是偏远地区提供高速、低延迟的互联网服务。自 2019 年起,Starlink 已部署数千颗卫星,旨在缩小全球数字鸿沟,推动互联网普及。该项目还为军事、航空等行业提供通信支持,带来广泛经济效益。
2D Orbit Map
3D Orbit Map
Orbit Altitude Analysis Chart
Orbit Inclination Analysis Chart
Orbit Comprehensive Analysis Chart
View Comprehensive Chart